Faribault, MN

7:36 PM CST on February 25, 2017 (GMT -0600)
Faribault Municipal

Weather History for KFBL - May, 2014

Change the Weather History Date:

Saturday, May 17, 2014

  Actual Average Record
Temperature  
Mean Temperature 55 °F -  
Max Temperature 69 °F 72 °F 92 °F (1987)
Min Temperature 41 °F 46 °F 8 °F (1998)
Degree Days  
Heating Degree Days 10    
Growing Degree Days 5 (Base 50)    
Moisture  
Dew Point 23 °F    
Average Humidity 33    
Maximum Humidity 57    
Minimum Humidity 10    
Precipitation  
Precipitation 0.00 in - - ()
Sea Level Pressure  
Sea Level Pressure 30.05 in    
Wind  
Wind Speed 6 mph (SW)    
Max Wind Speed 18 mph    
Max Gust Speed 22 mph    
Visibility 10 miles    
Events      
Averages and records for this station are not official NWS values.
T = Trace of Precipitation, MM = Missing Value Source: NWS Daily Summary

Daily Weather History Graph

Daily Weather History Graph

Search for Another Location

Airport or City:

Trip Planner

Search our weather history database for the weather conditions in past years. The results will help you decide how hot, cold, wet, or windy it might be!

Date:

Astronomy

May. 17, 2014 Rise Set
Actual Time 5:44 AM CDT 8:35 PM CDT
Civil Twilight 5:10 AM CDT 9:09 PM CDT
Nautical Twilight 4:27 AM CDT 9:53 PM CDT
Astronomical Twilight 3:36 AM CDT 10:43 PM CDT
Moon 11:35 PM CDT (5/17) 8:27 AM CDT (5/17)
Length of Visible Light 15h 59m
Length of Day
14h 51m
Waning Gibbous, 89% of the Moon is Illuminated
May 17
Waning Gibbous
May 21
Last Quarter
May 28
New
Jun 5
First Quarter
Jun 12
Full

Hourly Weather History & Observations

Time (CDT) Temp. Windchill Dew Point Humidity Pressure Visibility Wind Dir Wind Speed Gust Speed Precip Events Conditions
12:13 AM 44.6 °F 41.4 °F 24.8 °F 46% 30.07 in 10.0 mi SW 5.8 mph - N/A   Mostly Cloudy
12:34 AM 44.6 °F 43.1 °F 26.6 °F 49% 30.07 in 10.0 mi SW 3.5 mph - N/A   Overcast
12:54 AM 42.8 °F - 28.4 °F 57% 30.07 in 10.0 mi Calm Calm - N/A   Mostly Cloudy
1:14 AM 42.8 °F 40.1 °F 26.6 °F 53% 30.07 in 10.0 mi SW 4.6 mph - N/A   Scattered Clouds
1:34 AM 44.6 °F 42.2 °F 26.6 °F 49% 30.07 in 10.0 mi SW 4.6 mph - N/A   Clear
1:54 AM 44.6 °F 42.2 °F 26.6 °F 49% 30.07 in 10.0 mi SW 4.6 mph - N/A   Clear
2:14 AM 44.6 °F 42.2 °F 26.6 °F 49% 30.06 in 10.0 mi SW 4.6 mph - N/A   Clear
2:34 AM 42.8 °F 39.3 °F 26.6 °F 53% 30.06 in 10.0 mi SW 5.8 mph - N/A   Clear
2:54 AM 42.8 °F 40.1 °F 26.6 °F 53% 30.06 in 10.0 mi SSW 4.6 mph - N/A   Clear
3:14 AM 42.8 °F 40.1 °F 26.6 °F 53% 30.07 in 10.0 mi SSW 4.6 mph - N/A   Clear
3:34 AM 42.8 °F 40.1 °F 24.8 °F 49% 30.06 in 10.0 mi SSW 4.6 mph - N/A   Clear
3:54 AM 42.8 °F 39.3 °F 24.8 °F 49% 30.06 in 10.0 mi SSW 5.8 mph - N/A   Clear
4:14 AM 42.8 °F 40.1 °F 24.8 °F 49% 30.06 in 10.0 mi SSW 4.6 mph - N/A   Clear
4:34 AM 42.8 °F 39.3 °F 24.8 °F 49% 30.06 in 10.0 mi SSW 5.8 mph - N/A   Clear
4:54 AM 42.8 °F 39.3 °F 26.6 °F 53% 30.06 in 10.0 mi SSW 5.8 mph - N/A   Clear
5:14 AM 41.0 °F 38.0 °F 24.8 °F 53% 30.07 in 10.0 mi SSW 4.6 mph - N/A   Clear
5:34 AM 42.8 °F 39.3 °F 24.8 °F 49% 30.07 in 10.0 mi SSW 5.8 mph - N/A   Clear
5:54 AM 42.8 °F 40.1 °F 24.8 °F 49% 30.07 in 10.0 mi SSW 4.6 mph - N/A   Clear
6:14 AM 42.8 °F 40.1 °F 26.6 °F 53% 30.07 in 10.0 mi SSW 4.6 mph - N/A   Clear
6:34 AM 42.8 °F 40.1 °F 26.6 °F 53% 30.07 in 10.0 mi SSW 4.6 mph - N/A   Clear
6:54 AM 42.8 °F 41.1 °F 28.4 °F 57% 30.08 in 10.0 mi SSW 3.5 mph - N/A   Clear
7:14 AM 44.6 °F 43.1 °F 28.4 °F 53% 30.08 in 10.0 mi SSW 3.5 mph - N/A   Clear
7:34 AM 46.4 °F 43.5 °F 28.4 °F 50% 30.08 in 10.0 mi SSW 5.8 mph - N/A   Clear
7:53 AM 48.2 °F - 28.4 °F 46% 30.08 in 10.0 mi SSW 5.8 mph - N/A   Clear
8:14 AM 51.8 °F - 26.6 °F 38% 30.08 in 10.0 mi WSW 8.1 mph - N/A   Clear
8:34 AM 53.6 °F - 24.8 °F 33% 30.08 in 10.0 mi West 8.1 mph - N/A   Clear
8:54 AM 55.4 °F - 24.8 °F 31% 30.08 in 10.0 mi WSW 8.1 mph - N/A   Scattered Clouds
9:14 AM 55.4 °F - 24.8 °F 31% 30.08 in 10.0 mi WSW 10.4 mph - N/A   Mostly Cloudy
9:34 AM 55.4 °F - 24.8 °F 31% 30.08 in 10.0 mi WSW 6.9 mph - N/A   Mostly Cloudy
9:54 AM 57.2 °F - 21.2 °F 25% 30.08 in 10.0 mi WSW 12.7 mph 16.1 mph N/A   Scattered Clouds
10:14 AM 59.0 °F - 21.2 °F 23% 30.07 in 10.0 mi SW 11.5 mph 16.1 mph N/A   Scattered Clouds
10:34 AM 60.8 °F - 23.0 °F 23% 30.07 in 10.0 mi SW 10.4 mph - N/A   Clear
10:54 AM 60.8 °F - 23.0 °F 23% 30.07 in 10.0 mi SW 9.2 mph 16.1 mph N/A   Clear
11:13 AM 60.8 °F - 21.2 °F 22% 30.07 in 10.0 mi SW 11.5 mph 18.4 mph N/A   Clear
11:34 AM 62.6 °F - 21.2 °F 20% 30.06 in 10.0 mi SW 11.5 mph 19.6 mph N/A   Clear
11:54 AM 62.6 °F - 19.4 °F 19% 30.06 in 10.0 mi WSW 11.5 mph - N/A   Clear
12:14 PM 62.6 °F - 21.2 °F 20% 30.05 in 10.0 mi WSW 10.4 mph - N/A   Clear
12:34 PM 64.4 °F - 21.2 °F 19% 30.05 in 10.0 mi SW 12.7 mph 18.4 mph N/A   Clear
12:54 PM 64.4 °F - 21.2 °F 19% 30.04 in 10.0 mi SW 10.4 mph - N/A   Clear
1:14 PM 64.4 °F - 21.2 °F 19% 30.03 in 10.0 mi SSW 12.7 mph 17.3 mph N/A   Clear
1:34 PM 66.2 °F - 21.2 °F 18% 30.03 in 10.0 mi SW 13.8 mph 17.3 mph N/A   Scattered Clouds
1:54 PM 66.2 °F - 21.2 °F 18% 30.02 in 10.0 mi WSW 12.7 mph - N/A   Scattered Clouds
2:14 PM 68.0 °F - 19.4 °F 16% 30.01 in 10.0 mi West 11.5 mph 19.6 mph N/A   Scattered Clouds
2:34 PM 66.2 °F - 19.4 °F 17% 30.01 in 10.0 mi West 11.5 mph 18.4 mph N/A   Scattered Clouds
3:14 PM 68.0 °F - 21.2 °F 17% 30.01 in 10.0 mi West 18.4 mph 21.9 mph N/A   Scattered Clouds
3:34 PM 68.0 °F - 19.4 °F 16% 30.00 in 10.0 mi West 10.4 mph 20.7 mph N/A   Scattered Clouds
3:54 PM 68.0 °F - 19.4 °F 16% 30.00 in 10.0 mi West 12.7 mph 18.4 mph N/A   Scattered Clouds
4:14 PM 69.8 °F - 15.8 °F 13% 30.00 in 10.0 mi West 10.4 mph - N/A   Scattered Clouds
4:34 PM 69.8 °F - 17.6 °F 14% 30.00 in 10.0 mi WNW 13.8 mph 18.4 mph N/A   Scattered Clouds
4:54 PM 69.8 °F - 15.8 °F 13% 30.00 in 10.0 mi West 16.1 mph 19.6 mph N/A   Scattered Clouds
5:13 PM 69.8 °F - 15.8 °F 13% 30.00 in 10.0 mi NW 12.7 mph 19.6 mph N/A   Clear
5:34 PM 68.0 °F - 12.2 °F 12% 30.00 in 10.0 mi West 9.2 mph 18.4 mph N/A   Clear
5:54 PM 68.0 °F - 12.2 °F 12% 30.00 in 10.0 mi NW 11.5 mph 16.1 mph N/A   Clear
6:14 PM 68.0 °F - 12.2 °F 12% 30.00 in 10.0 mi NW 10.4 mph 18.4 mph N/A   Clear
6:34 PM 68.0 °F - 8.6 °F 10% 30.01 in 10.0 mi NW 8.1 mph - N/A   Clear
6:54 PM 66.2 °F - 8.6 °F 11% 30.01 in 10.0 mi WNW 10.4 mph 16.1 mph N/A   Clear
7:14 PM 66.2 °F - 10.4 °F 11% 30.01 in 10.0 mi WNW 5.8 mph - N/A   Clear
7:34 PM 66.2 °F - 17.6 °F 15% 30.02 in 10.0 mi West 4.6 mph - N/A   Clear
7:54 PM 64.4 °F - 19.4 °F 18% 30.01 in 10.0 mi Calm Calm - N/A   Clear
8:14 PM 64.4 °F - 8.6 °F 11% 30.02 in 10.0 mi Calm Calm - N/A   Clear
8:33 PM 62.6 °F - 19.4 °F 19% 30.02 in 10.0 mi Calm Calm - N/A   Clear
8:54 PM 57.2 °F - 23.0 °F 27% 30.02 in 10.0 mi Calm Calm - N/A   Clear
9:14 PM 57.2 °F - 26.6 °F 31% 30.03 in 10.0 mi Calm Calm - N/A   Clear
9:34 PM 55.4 °F - 30.2 °F 38% 30.03 in 10.0 mi Calm Calm - N/A   Clear
9:54 PM 53.6 °F - 33.8 °F 47% 30.03 in 10.0 mi Calm Calm - N/A   Clear
10:13 PM 53.6 °F - 28.4 °F 38% 30.04 in 10.0 mi Calm Calm - N/A   Clear
10:34 PM 55.4 °F - 28.4 °F 36% 30.04 in 10.0 mi South 3.5 mph - N/A   Clear
10:54 PM 53.6 °F - 32.0 °F 44% 30.04 in 10.0 mi Calm Calm - N/A   Clear
11:14 PM 53.6 °F - 30.2 °F 41% 30.05 in 10.0 mi South 4.6 mph - N/A   Clear
11:34 PM 53.6 °F - 30.2 °F 41% 30.05 in 10.0 mi South 3.5 mph - N/A   Clear
11:54 PM 53.6 °F - 32.0 °F 44% 30.05 in 10.0 mi Calm Calm - N/A   Clear